�N����,����,�~����,�C��,���x,�C��,����,���ϕ���,�ő�u�ԕ���,�ő厞����,���˗�,�I�_���x,�n�����x,�ő啗���N��,DTYPE
"23/05/22","00:10",0.0,18.1,86.3,1002.6,313.1,1.3,1.8,308.0,0.00,15.8,19.7,"00:07:56",1
"23/05/22","00:20",0.0,18.0,86.7,1002.6,316.1,1.5,3.1,334.5,0.00,15.8,19.7,"00:14:48",1
"23/05/22","00:30",0.0,18.0,87.1,1002.9,324.7,0.8,2.1,334.3,0.00,15.9,19.7,"00:28:24",1
"23/05/22","00:40",0.0,18.3,87.5,1002.9,334.0,1.7,2.6,326.2,0.00,16.2,19.4,"00:36:00",1
"23/05/22","00:50",0.0,18.4,87.5,1002.6,328.4,1.8,3.3,321.8,0.00,16.3,19.4,"00:48:32",1
"23/05/22","01:00",0.0,18.7,87.1,1002.6,318.3,2.0,3.2,315.4,0.00,16.6,19.7,"00:56:48",1
"23/05/22","01:10",0.0,18.6,86.9,1002.6,328.6,1.1,2.4,340.8,0.00,16.4,19.4,"01:02:48",1
"23/05/22","01:20",0.0,18.5,86.8,1002.4,329.1,1.3,3.2,332.4,0.00,16.3,19.5,"01:14:48",1
"23/05/22","01:30",0.0,18.7,86.6,1002.6,330.0,2.1,3.4,327.0,0.00,16.5,19.3,"01:28:16",1
"23/05/22","01:40",0.0,18.8,86.2,1002.2,318.0,2.2,3.4,318.3,0.00,16.5,19.4,"01:39:44",1
"23/05/22","01:50",0.0,18.8,85.8,1002.2,327.1,2.3,3.5,327.7,0.00,16.4,19.4,"01:41:44",1
"23/05/22","02:00",0.0,18.6,85.8,1001.9,326.7,2.2,3.1,332.9,0.00,16.2,19.4,"01:56:32",1
"23/05/22","02:10",0.0,18.5,85.8,1002.2,332.7,1.7,2.9,338.6,0.00,16.1,19.3,"02:00:56",1
"23/05/22","02:20",0.0,18.4,86.1,1001.7,322.7,2.3,3.3,320.6,0.00,16.1,19.3,"02:15:44",1
"23/05/22","02:30",0.0,18.4,86.2,1001.7,327.8,2.5,4.2,337.8,0.00,16.1,19.2,"02:21:44",1
"23/05/22","02:40",0.0,18.4,86.1,1001.9,331.3,1.6,3.1,331.6,0.00,16.1,19.1,"02:33:52",1
"23/05/22","02:50",0.0,18.0,86.3,1001.2,313.6,1.0,1.8,305.9,0.00,15.7,19.2,"02:40:40",1
"23/05/22","03:00",0.0,18.0,86.6,1001.5,341.7,1.2,2.4,332.1,0.00,15.8,19.1,"02:57:12",1
"23/05/22","03:10",0.0,18.0,86.8,1001.5,341.4,1.2,2.0,320.4,0.00,15.8,19.2,"03:00:02",1
"23/05/22","03:20",0.0,17.9,87.1,1001.5,327.4,2.0,2.9,324.3,0.00,15.8,19.1,"03:18:24",1
"23/05/22","03:30",0.0,17.8,87.3,1001.5,314.4,1.8,2.8,312.1,0.00,15.7,18.9,"03:24:40",1
"23/05/22","03:40",0.0,17.7,87.6,1001.5,332.7,1.5,2.2,352.3,0.00,15.7,19.0,"03:38:16",1
"23/05/22","03:50",0.0,17.6,88.0,1001.5,333.5,1.8,2.9,335.0,0.00,15.6,18.9,"03:49:12",1
"23/05/22","04:00",0.0,17.7,88.3,1001.2,327.3,2.0,3.4,338.5,0.00,15.8,19.3,"03:50:02",1
"23/05/22","04:10",0.0,17.9,88.3,1001.2,330.2,2.3,5.0,338.8,0.00,16.0,18.9,"04:02:56",1
"23/05/22","04:20",0.0,17.9,88.2,1001.5,336.8,2.1,3.2,325.1,0.00,16.0,18.9,"04:14:16",1
"23/05/22","04:30",0.0,17.8,88.0,1001.5,331.8,1.8,4.1,322.9,0.00,15.8,18.9,"04:24:00",1
"23/05/22","04:40",0.0,17.5,87.9,1001.7,341.0,1.5,2.5,353.2,0.00,15.5,19.0,"04:37:36",1
"23/05/22","04:50",0.0,17.4,87.9,1001.5,315.2,2.0,3.5,304.8,0.00,15.4,19.0,"04:46:56",1
"23/05/22","05:00",0.0,17.3,87.9,1001.5,329.7,2.2,3.4,339.5,0.00,15.3,19.0,"04:55:44",1
"23/05/22","05:10",0.0,17.3,88.1,1001.2,328.2,2.2,3.5,330.8,0.00,15.4,19.0,"05:04:24",1
"23/05/22","05:20",0.0,17.2,88.4,1001.2,331.5,2.0,3.2,341.0,0.00,15.3,18.7,"05:14:00",1
"23/05/22","05:30",0.0,17.1,88.7,1001.2,328.1,1.6,2.4,325.8,0.00,15.3,18.7,"05:29:44",1
"23/05/22","05:40",0.0,17.1,89.0,1001.0,330.8,1.6,2.5,337.6,0.00,15.3,18.8,"05:36:16",1
"23/05/22","05:50",0.0,17.2,89.1,1001.5,336.8,1.6,3.2,322.5,0.00,15.4,19.0,"05:49:52",1
"23/05/22","06:00",0.0,17.2,89.3,1001.5,326.2,1.8,2.7,333.8,0.00,15.5,18.7,"05:50:40",1
"23/05/22","06:10",0.0,17.2,89.5,1001.9,332.1,2.0,2.8,339.4,0.00,15.5,18.8,"06:05:04",1
"23/05/22","06:20",0.0,17.2,89.7,1001.5,325.6,2.0,3.2,320.0,0.00,15.5,18.8,"06:17:04",1
"23/05/22","06:30",0.0,17.3,89.7,1001.2,319.5,1.5,2.6,335.5,0.01,15.6,18.7,"06:20:56",1
"23/05/22","06:40",0.0,17.5,89.8,1001.5,321.9,1.2,1.8,332.9,0.03,15.8,18.7,"06:36:40",1
"23/05/22","06:50",0.0,17.9,89.8,1001.7,330.2,1.1,1.9,342.1,0.04,16.2,18.6,"06:43:28",1
"23/05/22","07:00",0.0,18.3,89.3,1001.5,334.4,1.6,2.9,323.2,0.06,16.5,18.5,"06:57:12",1
"23/05/22","07:10",0.0,18.7,88.6,1001.9,321.8,1.7,2.9,318.2,0.07,16.8,18.7,"07:03:12",1
"23/05/22","07:20",0.0,19.2,87.7,1001.9,332.4,1.7,3.1,319.4,0.08,17.2,18.6,"07:12:56",1
"23/05/22","07:30",0.0,19.6,86.5,1001.5,307.3,1.2,2.1,334.3,0.06,17.3,18.7,"07:20:56",1
"23/05/22","07:40",0.0,19.8,85.4,1001.7,321.3,1.3,2.6,319.5,0.08,17.3,18.5,"07:36:08",1
"23/05/22","07:50",0.0,20.0,84.3,1001.7,304.3,1.3,2.2,329.5,0.09,17.3,18.7,"07:40:08",1
"23/05/22","08:00",0.0,20.3,83.0,1001.7,327.4,1.5,2.7,353.5,0.13,17.4,18.5,"07:55:36",1
"23/05/22","08:10",0.0,20.7,81.2,1001.9,314.4,1.3,2.4,316.8,0.18,17.4,18.7,"08:07:36",1
"23/05/22","08:20",0.0,21.4,79.5,1001.5,291.1,0.6,1.6,315.0,0.18,17.7,18.6,"08:10:16",1
"23/05/22","08:30",0.0,21.7,77.2,1001.2,320.3,1.2,2.4,341.1,0.18,17.6,18.8,"08:28:16",1
"23/05/22","08:40",0.0,22.4,74.9,1001.2,327.4,1.1,1.9,262.6,0.25,17.8,18.7,"08:38:32",1
"23/05/22","08:50",0.0,22.8,72.6,1000.8,310.2,1.2,3.2,343.7,0.27,17.7,18.6,"08:47:52",1
"23/05/22","09:00",0.0,23.2,70.4,1000.3,306.6,0.8,2.1,342.1,0.29,17.6,18.7,"08:57:28",1
"23/05/22","09:10",0.0,24.0,68.4,1000.3,55.1,0.6,1.4,307.6,0.29,17.9,18.7,"09:04:56",1
"23/05/22","09:20",0.0,24.2,66.0,999.8,341.2,1.0,2.9,332.7,0.33,17.5,18.7,"09:17:04",1
"23/05/22","09:30",0.0,24.3,66.4,999.8,286.2,0.8,1.8,317.4,0.35,17.7,18.7,"09:23:12",1
"23/05/22","09:40",0.0,24.7,65.5,998.9,6.0,0.8,2.4,330.8,0.37,17.8,18.8,"09:31:12",1
"23/05/22","09:50",0.0,24.6,64.2,999.6,136.7,0.8,2.5,240.0,0.29,17.4,19.0,"09:47:20",1
"23/05/22","10:00",0.0,24.4,63.9,999.6,278.2,1.3,3.2,226.1,0.31,17.2,18.7,"09:52:16",1
"23/05/22","10:10",0.0,24.7,63.9,999.3,327.6,0.7,2.2,231.2,0.25,17.5,18.8,"10:00:56",1
"23/05/22","10:20",0.0,25.0,63.3,999.3,269.3,1.1,2.9,230.4,0.32,17.6,19.0,"10:17:44",1
"23/05/22","10:30",0.0,25.5,65.2,999.6,173.1,1.2,2.2,120.5,0.42,18.5,19.0,"10:28:08",1
"23/05/22","10:40",0.0,25.6,62.9,999.6,198.9,1.3,3.1,235.7,0.49,18.1,19.2,"10:36:32",1
"23/05/22","10:50",0.0,26.1,62.6,999.8,115.9,1.0,2.2,108.3,0.50,18.4,19.0,"10:42:08",1
"23/05/22","11:00",0.0,26.7,60.3,1000.3,263.5,0.7,2.0,244.2,0.51,18.4,19.0,"10:53:12",1
"23/05/22","11:10",0.0,26.7,58.6,1000.0,225.2,1.2,3.2,266.2,0.52,18.0,19.3,"11:07:28",1
"23/05/22","11:20",0.0,26.9,57.2,1000.3,311.6,1.2,3.4,345.2,0.58,17.8,19.2,"11:19:20",1
"23/05/22","11:30",0.0,26.6,57.3,999.8,351.7,1.0,3.5,337.5,0.33,17.5,19.3,"11:20:16",1
"23/05/22","11:40",0.0,26.6,58.9,999.1,299.3,1.5,2.7,331.0,0.45,17.9,19.4,"11:30:48",1
"23/05/22","11:50",0.0,27.0,59.5,999.3,212.1,1.8,4.1,220.3,0.54,18.5,19.3,"11:42:24",1
"23/05/22","12:00",0.0,27.8,57.0,999.3,157.9,1.1,3.3,242.4,0.58,18.5,19.5,"11:59:44",1
"23/05/22","12:10",0.0,27.7,55.9,999.6,221.2,1.7,4.4,189.0,0.60,18.1,19.5,"12:01:28",1
"23/05/22","12:20",0.0,27.7,56.5,999.6,304.3,1.5,4.1,343.2,0.53,18.3,19.7,"12:10:02",1
"23/05/22","12:30",0.0,27.7,57.2,999.1,323.9,1.5,4.3,350.4,0.53,18.5,19.9,"12:23:20",1
"23/05/22","12:40",0.0,27.4,56.4,998.9,328.6,1.3,4.0,350.7,0.36,18.0,19.9,"12:32:24",1
"23/05/22","12:50",0.0,26.7,58.8,998.6,331.7,1.7,4.1,338.7,0.29,18.0,19.9,"12:44:32",1
"23/05/22","13:00",0.0,26.8,58.6,998.2,300.7,1.2,4.0,237.1,0.29,18.1,19.9,"12:56:48",1
"23/05/22","13:10",0.0,27.3,55.7,998.2,31.0,1.1,2.6,357.0,0.38,17.7,20.0,"13:02:56",1
"23/05/22","13:20",0.0,28.0,55.8,998.4,15.9,1.5,2.6,37.4,0.43,18.4,20.0,"13:16:08",1
"23/05/22","13:30",0.0,28.5,55.4,997.9,93.7,0.5,2.2,348.2,0.32,18.7,20.0,"13:24:08",1
"23/05/22","13:40",0.0,29.3,55.0,998.2,26.7,0.6,1.8,118.0,0.47,19.4,20.2,"13:32:16",1
"23/05/22","13:50",0.0,29.4,53.9,998.6,355.8,1.2,3.3,323.2,0.54,19.1,20.2,"13:46:16",1
"23/05/22","14:00",0.0,28.3,54.2,998.6,322.9,1.5,4.4,339.2,0.26,18.2,20.4,"13:59:04",1
"23/05/22","14:10",0.0,27.4,58.0,997.9,323.3,1.5,3.5,332.0,0.18,18.4,20.3,"14:04:32",1
"23/05/22","14:20",0.0,28.5,57.4,997.7,9.4,1.1,3.6,328.4,0.44,19.3,20.7,"14:13:36",1
"23/05/22","14:30",0.0,28.5,54.0,997.9,296.0,1.5,2.9,308.3,0.36,18.3,20.4,"14:20:16",1
"23/05/22","14:40",0.0,28.4,54.8,997.9,270.1,1.2,2.8,326.2,0.33,18.5,20.4,"14:36:08",1
"23/05/22","14:50",0.0,28.5,55.4,997.7,259.7,0.5,1.2,216.7,0.23,18.7,20.4,"14:47:12",1
"23/05/22","15:00",0.0,28.8,56.0,997.2,178.2,0.7,2.1,203.7,0.24,19.2,20.6,"14:56:00",1
"23/05/22","15:10",0.0,28.5,54.5,997.2,77.2,0.8,1.6,121.6,0.22,18.5,20.7,"15:00:48",1
"23/05/22","15:20",0.0,28.8,56.0,997.4,60.1,0.7,1.7,2.0,0.22,19.2,20.7,"15:10:24",1
"23/05/22","15:30",0.0,28.1,55.5,997.4,205.8,1.2,2.1,192.6,0.16,18.4,20.7,"15:26:16",1
"23/05/22","15:40",0.0,28.2,57.3,997.2,164.0,0.8,2.1,210.3,0.19,19.0,20.8,"15:34:16",1
"23/05/22","15:50",0.0,28.4,56.8,997.4,87.4,0.5,1.3,113.4,0.15,19.0,21.0,"15:43:44",1
"23/05/22","16:00",0.0,28.2,54.4,997.2,288.8,1.5,3.6,215.1,0.23,18.2,20.6,"15:58:24",1
"23/05/22","16:10",0.0,28.0,56.0,997.0,223.8,1.0,2.4,236.1,0.12,18.4,20.8,"16:08:16",1
"23/05/22","16:20",0.0,27.6,55.5,996.5,308.4,1.2,4.0,357.6,0.09,17.9,20.8,"16:18:56",1
"23/05/22","16:30",0.0,27.2,56.9,996.0,307.8,1.6,2.9,356.3,0.08,18.0,20.9,"16:20:08",1
"23/05/22","16:40",0.0,26.6,60.6,995.8,338.2,2.6,6.7,354.4,0.05,18.4,20.9,"16:39:52",1
"23/05/22","16:50",0.0,25.2,65.8,996.3,345.1,3.7,6.3,346.2,0.04,18.4,20.6,"16:42:40",1
"23/05/22","17:00",0.0,24.7,67.4,997.0,351.8,3.5,8.0,351.3,0.10,18.3,20.8,"16:54:40",1
"23/05/22","17:10",0.0,24.3,67.5,997.0,353.4,3.1,6.8,354.2,0.12,17.9,21.0,"17:00:02",1
"23/05/22","17:20",0.0,23.8,67.6,997.0,2.5,3.5,6.3,351.2,0.09,17.5,20.7,"17:11:52",1
"23/05/22","17:30",0.0,23.1,68.5,997.4,353.0,4.5,8.1,338.8,0.08,17.0,20.9,"17:26:56",1
"23/05/22","17:40",0.0,22.9,69.4,997.4,348.2,3.9,7.0,347.5,0.06,17.0,20.9,"17:35:12",1
"23/05/22","17:50",0.0,22.6,69.1,998.4,347.8,4.0,7.9,333.9,0.04,16.7,20.9,"17:44:40",1
"23/05/22","18:00",0.0,22.2,69.2,998.2,347.7,4.1,7.7,354.6,0.01,16.3,20.9,"17:55:28",1
"23/05/22","18:10",0.0,21.5,68.8,998.4,344.4,5.4,10.2,337.9,0.02,15.6,21.0,"18:00:02",1
"23/05/22","18:20",0.0,21.1,66.7,998.9,336.8,5.6,9.4,332.7,0.03,14.7,20.8,"18:15:44",1
"23/05/22","18:30",0.0,20.8,61.5,998.6,335.6,4.7,8.1,315.8,0.01,13.2,20.5,"18:22:08",1
"23/05/22","18:40",0.0,20.6,55.9,999.3,337.1,4.1,6.3,291.0,0.00,11.5,20.8,"18:30:16",1
"23/05/22","18:50",0.0,20.4,52.5,999.3,331.6,3.9,9.0,332.4,0.00,10.4,20.7,"18:48:56",1
"23/05/22","19:00",0.0,20.1,49.7,999.6,332.5,4.0,7.2,326.7,0.00,9.3,20.7,"18:56:32",1
"23/05/22","19:10",0.0,20.2,47.6,999.6,331.8,4.6,10.1,341.2,0.00,8.8,20.6,"19:00:56",1
"23/05/22","19:20",0.0,20.0,49.2,999.6,323.2,4.0,7.2,346.4,0.00,9.1,20.4,"19:11:12",1
"23/05/22","19:30",0.0,19.5,52.8,1000.3,319.7,4.5,10.4,328.2,0.00,9.7,20.7,"19:24:32",1
"23/05/22","19:40",0.0,19.3,56.6,1000.3,310.4,3.7,6.3,356.9,0.00,10.5,20.5,"19:31:28",1
"23/05/22","19:50",0.0,18.8,60.1,1000.3,316.4,3.6,7.2,328.5,0.00,10.9,20.5,"19:45:04",1
"23/05/22","20:00",0.0,18.7,60.7,1000.8,323.4,4.5,7.8,298.0,0.00,11.0,20.4,"19:56:32",1
"23/05/22","20:10",0.0,18.7,60.3,1000.8,332.9,4.1,6.3,329.0,0.00,10.9,20.4,"20:02:08",1
"23/05/22","20:20",0.0,18.1,63.1,1001.0,320.5,2.7,4.8,344.7,0.00,11.0,20.2,"20:10:56",1
"23/05/22","20:30",0.0,17.5,67.1,1001.2,316.4,2.8,5.1,326.2,0.00,11.4,20.2,"20:22:00",1
"23/05/22","20:40",0.2,17.0,70.4,1001.2,323.7,2.1,3.6,343.0,0.00,11.6,20.3,"20:35:20",1
"23/05/22","20:50",0.0,16.4,72.3,1001.2,329.5,2.1,3.9,346.7,0.00,11.4,20.4,"20:41:44",1
"23/05/22","21:00",0.2,16.3,74.1,1001.2,316.0,1.0,2.5,344.2,0.00,11.7,20.2,"20:50:16",1
"23/05/22","21:10",0.6,16.1,77.3,1001.0,348.5,1.2,2.5,347.6,0.00,12.2,20.1,"21:05:12",1
"23/05/22","21:20",0.2,15.6,81.3,1001.5,314.6,1.6,2.4,302.5,0.00,12.5,20.1,"21:16:00",1
"23/05/22","21:30",0.0,15.4,83.6,1001.5,297.1,1.3,1.9,337.3,0.00,12.7,20.2,"21:28:12",1
"23/05/22","21:40",0.0,15.4,85.5,1001.2,337.6,1.7,2.2,339.7,0.00,13.0,20.0,"21:36:24",1
"23/05/22","21:50",0.0,15.1,87.2,1001.5,297.8,2.0,2.7,348.8,0.00,13.0,19.9,"21:41:30",1
"23/05/22","22:00",0.0,14.9,88.4,1001.2,290.9,1.7,2.7,267.0,0.00,13.0,19.8,"21:58:12",1
"23/05/22","22:10",0.0,14.9,89.2,1000.8,322.9,1.7,3.1,327.1,0.00,13.2,19.8,"22:00:26",1
"23/05/22","22:20",0.0,14.9,89.9,1001.0,266.6,2.0,2.6,263.4,0.00,13.3,19.8,"22:11:28",1
"23/05/22","22:30",0.0,14.8,90.4,1001.0,298.7,1.6,2.7,319.9,0.00,13.3,19.7,"22:29:22",1
"23/05/22","22:40",0.0,14.7,90.8,1001.2,312.1,2.7,4.2,313.3,0.00,13.3,19.9,"22:34:44",1
"23/05/22","22:50",0.0,14.6,91.2,1001.0,313.9,2.1,3.6,338.3,0.00,13.2,19.4,"22:44:26",1
"23/05/22","23:00",0.0,14.7,91.3,1000.8,331.6,1.8,2.9,329.7,0.00,13.3,19.7,"22:58:58",1
"23/05/22","23:10",0.0,14.6,91.5,1000.5,335.4,1.8,3.2,342.6,0.00,13.3,19.7,"23:09:58",1
"23/05/22","23:20",0.0,14.7,91.6,1000.8,326.9,2.7,4.5,336.7,0.00,13.4,19.6,"23:16:24",1
"23/05/22","23:30",0.0,14.6,91.7,1000.5,332.4,2.7,3.9,341.7,0.00,13.3,19.8,"23:22:34",1
"23/05/22","23:40",0.0,14.7,91.8,1000.5,323.5,2.7,4.5,339.3,0.00,13.4,19.8,"23:36:28",1
"23/05/22","23:50",0.0,14.7,91.8,1000.3,323.3,2.5,3.4,327.2,0.00,13.4,19.6,"23:44:36",1
"23/05/22","24:00",0.0,14.7,91.9,1000.0,328.9,2.2,3.3,327.2,0.00,13.4,19.5,"23:56:54",1
